[[{"header":{"parameterUnit":"m.s-1","parameterCategory":1,"la1":30.2991,"la2":30.254,"lo1":-89.0895,"lo2":-89.0444,"dy":0.0017,"dx":0.0017,"nx":28,"ny":28,"refTime":"2024-02-25T09:00:00:Z","depth":0,"parameterNumber":2,"parameterNumberName":"U-component_of_WINDS"},"data":[0,0,0,0,0,0,0,0,0,0,0,0,0,0,0,0,0,0,0,0,0,0,0,0,0,0,0,0,0,0,0,0,0,0,0,0,0,0,0,0,0,0,0,0,0,0,0,0,0,0,0,0,0,0,0,0,0,0,-0.8357,-0.8358,0,-0.8371,-0.8371,-0.8371,-0.8371,-0.837,-0.837,-0.837,-0.8387,-0.8387,-0.8388,0,0,0,0,0,0,0,0,0,0,0,0,0,-0.8334,-0.8334,-0.8357,-0.8358,-0.8358,-0.8371,-0.8371,-0.8371,-0.8371,-0.837,-0.837,-0.837,-0.8387,-0.8387,-0.8388,0,0,0,0,0,0,0,0,0,0,0,0,0,-0.8345,-0.8335,-0.8357,-0.8359,-0.8359,-0.8371,-0.8371,-0.8371,-0.8371,-0.837,-0.837,-0.837,-0.8386,-0.8387,-0.8388,-0.84,0,0,-0.8391,-0.8391,0,0,0,0,0,0,0,0,-0.8345,-0.8346,-0.8359,-0.8359,-0.8359,-0.8369,-0.8369,-0.8381,-0.8371,-0.8366,-0.837,-0.837,-0.8381,-0.8382,-0.8386,-0.8401,-0.8401,-0.8391,-0.8392,-0.8392,-0.8392,0,0,0,0,0,0,0,-0.8344,-0.8346,-0.8363,-0.8359,-0.8359,-0.836,-0.8361,-0.8371,-0.8375,-0.8367,-0.8367,-0.8368,-0.8381,-0.8385,-0.8386,-0.8401,-0.8391,-0.8392,-0.8392,-0.8393,-0.8426,-0.8426,0,0,0,0,0,0,-0.8343,-0.8345,-0.8362,-0.8363,-0.8351,-0.836,-0.8362,-0.8366,-0.8375,-0.8376,-0.8368,-0.8368,-0.8383,-0.8385,-0.8387,-0.84,-0.8392,-0.8393,-0.8393,-0.8425,-0.8426,-0.8426,0,0,0,0,0,0,-0.8342,-0.8344,-0.8362,-0.8354,-0.8356,-0.8361,-0.8366,-0.8366,-0.837,-0.8376,-0.8377,-0.8371,-0.8383,-0.8385,-0.8396,-0.8401,-0.8393,-0.8394,-0.8425,-0.8426,-0.8426,-0.8428,0,0,0,0,0,0,-0.8341,-0.8344,-0.8348,-0.8354,-0.8357,-0.837,-0.8366,-0.8367,-0.8371,-0.8371,-0.8379,-0.838,-0.8383,-0.8395,-0.8397,-0.8402,-0.8395,-0.8425,-0.8425,-0.8426,-0.8427,-0.8428,-0.8429,0,0,0,0,0,-0.8341,-0.8349,-0.8348,-0.835,-0.8362,-0.8371,-0.8372,-0.8374,-0.8371,-0.8376,-0.838,-0.838,-0.84,-0.8396,-0.8398,-0.8404,-0.8424,-0.8425,-0.8426,-0.8427,-0.8428,-0.8429,0,0,0,0,0,0,-0.8344,-0.835,-0.8349,-0.8359,-0.8364,-0.837,-0.8376,-0.8376,-0.8382,-0.8382,-0.8385,-0.8387,-0.8398,-0.8402,-0.8397,-0.8415,-0.8412,-0.8413,-0.8412,-0.8413,-0.8414,-0.8413,-0.8396,0,0,0,0,0,-0.8346,-0.8351,-0.8356,-0.8365,-0.8368,-0.8371,-0.8375,-0.8376,-0.8382,-0.8385,-0.839,-0.8396,-0.8404,-0.8409,-0.8416,-0.8428,-0.843,-0.8433,-0.8434,-0.8434,-0.8435,-0.8441,-0.8443,-0.8428,-0.8428,-0.8428,0,0,-0.835,-0.8353,-0.8357,-0.8366,-0.837,-0.8376,-0.8373,-0.838,-0.8385,-0.8386,-0.8396,-0.84,-0.8407,-0.8418,-0.8423,-0.8422,-0.844,-0.8435,-0.8436,-0.8436,-0.8442,-0.8444,-0.8445,-0.8429,-0.8429,-0.8429,0,0,-0.836,-0.8364,-0.8371,-0.8375,-0.838,-0.8383,-0.8384,-0.839,-0.8392,-0.8402,-0.8403,-0.8409,-0.8422,-0.8427,-0.8432,-0.8443,-0.8443,-0.8446,-0.845,-0.8456,-0.8457,-0.8458,-0.8462,-0.8463,-0.8447,-0.8447,-0.8447,0,-0.8365,-0.8374,-0.8375,-0.8382,-0.8385,-0.8385,-0.8392,-0.8397,-0.8405,-0.8408,-0.8406,-0.8422,-0.8427,-0.8439,-0.8441,-0.8445,-0.8447,-0.8445,-0.8457,-0.8458,-0.8459,-0.8462,-0.8464,-0.8447,-0.8447,-0.8447,-0.8447,0,-0.8379,-0.8385,-0.839,-0.8397,-0.8401,-0.8408,-0.8411,-0.8416,-0.8416,-0.8419,-0.8429,-0.8435,-0.8443,-0.8446,-0.8447,-0.8458,-0.8457,-0.8456,-0.8453,-0.846,-0.8463,-0.8465,-0.8447,-0.8447,-0.8447,-0.8447,0,0,-0.8392,-0.8398,-0.84,-0.8403,-0.8409,-0.8414,-0.8421,-0.8428,-0.8432,-0.8438,-0.8444,-0.8454,-0.8453,-0.8458,-0.846,-0.8465,-0.8473,-0.8463,-0.8464,-0.8465,-0.8485,-0.8485,-0.8486,-0.8473,-0.8474,-0.8474,-0.8484,0,-0.8403,-0.8414,-0.8415,-0.8426,-0.8432,-0.8431,-0.8437,-0.8442,-0.8445,-0.8451,-0.8454,-0.8461,-0.8459,-0.8462,-0.8467,-0.8471,-0.8477,-0.847,-0.8479,-0.848,-0.8477,-0.8488,-0.8489,-0.8498,-0.8485,-0.8485,-0.8486,0,-0.8417,-0.8421,-0.8432,-0.8437,-0.8439,-0.8445,-0.8451,-0.8456,-0.8461,-0.8463,-0.8468,-0.8469,-0.8477,-0.8473,-0.8484,-0.8479,-0.8483,-0.8486,-0.8486,-0.8487,-0.8483,-0.8489,-0.8501,-0.8502,-0.8488,-0.8488,-0.8487,0,-0.8424,-0.8434,-0.8441,-0.8444,-0.8449,-0.8453,-0.8456,-0.846,-0.8464,-0.847,-0.8473,-0.848,-0.8483,-0.8489,-0.8492,-0.8489,-0.8502,-0.8499,-0.8504,-0.8504,-0.8507,-0.8507,-0.8519,-0.851,-0.851,-0.851,-0.851,0,-0.8436,-0.8443,-0.8444,-0.8449,-0.8457,-0.8458,-0.8465,-0.8468,-0.8472,-0.8478,-0.8478,-0.8484,-0.8487,-0.8493,-0.8496,-0.8504,-0.8506,-0.8508,-0.8509,-0.8508,-0.8507,-0.851,-0.851,-0.851,-0.851,-0.851,-0.851,0,-0.8446,-0.8447,-0.8455,-0.846,-0.8461,-0.8466,-0.847,-0.8475,-0.8477,-0.8484,-0.8486,-0.849,-0.8497,-0.85,-0.8509,-0.8511,-0.852,-0.8521,-0.8518,-0.8518,-0.8522,-0.8522,-0.8537,-0.8539,-0.8529,-0.8529,-0.8529,0,-0.8453,-0.8458,-0.8462,-0.8465,-0.8467,-0.8473,-0.8476,-0.8478,-0.8482,-0.8488,-0.8492,-0.8499,-0.8504,-0.8515,-0.8519,-0.8526,-0.8527,-0.8531,-0.8528,-0.8526,-0.8526,-0.8526,-0.8526,-0.8532,-0.8532,-0.8532,-0.8532,0,-0.8465,-0.8465,-0.847,-0.8475,-0.8478,-0.8483,-0.8487,-0.849,-0.8492,-0.8496,-0.8503,-0.8507,-0.8515,-0.8522,-0.8529,-0.8532,-0.8533,-0.8533,-0.8535,-0.8534,-0.8532,-0.8533,-0.8519,-0.8533,-0.8533,-0.8533,-0.8533,-0.8533,-0.8473,-0.8477,-0.8481,-0.8486,-0.8489,-0.8492,-0.8497,-0.8499,-0.8504,-0.851,-0.8511,-0.8518,-0.8523,-0.8532,-0.8536,-0.8542,-0.8541,-0.8543,-0.8543,-0.8544,-0.8544,-0.8531,-0.8543,-0.8543,-0.8543,-0.8543,-0.8543,0,-0.8485,-0.8487,-0.8491,-0.8496,-0.85,-0.8499,-0.8504,-0.8507,-0.8513,-0.8517,-0.8522,-0.8529,-0.8536,-0.854,-0.8547,-0.855,-0.8551,-0.8552,-0.8552,-0.8552,-0.8545,-0.8542,-0.8551,-0.8551,-0.8551,-0.8551,-0.8551,-0.8551,-0.8492,-0.8498,-0.8499,-0.8507,-0.8509,-0.8515,-0.8517,-0.8521,-0.8524,-0.8532,-0.8536,-0.8539,-0.8543,-0.855,-0.8555,-0.8557,-0.8559,-0.856,-0.8561,-0.8554,-0.8553,-0.8552,-0.855,-0.8561,-0.8561,-0.8569,-0.8569,-0.8569]},{"header":{"parameterUnit":"m.s-1","parameterCategory":1,"la1":30.2991,"la2":30.254,"lo1":-89.0895,"lo2":-89.0444,"dy":0.0017,"dx":0.0017,"nx":28,"ny":28,"refTime":"2024-02-25T09:00:00:Z","depth":0,"parameterNumber":3,"parameterNumberName":"V-component_of_WINDS"},"data":[0,0,0,0,0,0,0,0,0,0,0,0,0,0,0,0,0,0,0,0,0,0,0,0,0,0,0,0,0,0,0,0,0,0,0,0,0,0,0,0,0,0,0,0,0,0,0,0,0,0,0,0,0,0,0,0,0,0,1.741,1.7412,0,1.7578,1.7579,1.7581,1.7609,1.7607,1.7606,1.7605,1.7779,1.7785,1.7791,0,0,0,0,0,0,0,0,0,0,0,0,0,1.7115,1.7121,1.741,1.7412,1.7414,1.7577,1.758,1.7582,1.7609,1.7607,1.7606,1.7604,1.7777,1.7784,1.7791,0,0,0,0,0,0,0,0,0,0,0,0,0,1.7259,1.7122,1.7409,1.7447,1.7452,1.7577,1.758,1.7582,1.7609,1.7607,1.7605,1.7603,1.7775,1.7783,1.7792,1.7892,0,0,1.782,1.7824,0,0,0,0,0,0,0,0,1.7251,1.727,1.744,1.7445,1.7451,1.757,1.754,1.7686,1.761,1.755,1.7605,1.7602,1.7711,1.7726,1.7762,1.79,1.7908,1.7821,1.7826,1.783,1.7833,0,0,0,0,0,0,0,1.7241,1.7263,1.7476,1.7442,1.7449,1.7456,1.7474,1.7568,1.7641,1.7555,1.7557,1.7577,1.7714,1.7753,1.7766,1.791,1.782,1.7828,1.7834,1.7838,1.8138,1.814,0,0,0,0,0,0,1.7224,1.7254,1.7471,1.7481,1.7343,1.7464,1.7484,1.7534,1.764,1.7654,1.7578,1.7577,1.7739,1.7756,1.7772,1.7896,1.783,1.7838,1.7844,1.8135,1.8139,1.8141,0,0,0,0,0,0,1.7217,1.7243,1.7464,1.7369,1.7397,1.7471,1.7527,1.7538,1.7578,1.7658,1.7671,1.7605,1.7738,1.776,1.7862,1.7903,1.7842,1.7851,1.8132,1.8136,1.814,1.8145,0,0,0,0,0,0,1.7209,1.724,1.7279,1.7369,1.7402,1.755,1.753,1.7543,1.7593,1.7593,1.7686,1.7699,1.7738,1.7848,1.7871,1.7914,1.7858,1.8129,1.8134,1.8139,1.8141,1.8148,1.8154,0,0,0,0,0,1.7198,1.7274,1.7281,1.7307,1.7452,1.7553,1.7572,1.7614,1.7596,1.7635,1.7686,1.7696,1.7894,1.7858,1.7884,1.7931,1.8127,1.8133,1.8138,1.8138,1.8147,1.8154,0,0,0,0,0,0,1.7188,1.7287,1.7295,1.7402,1.7468,1.7557,1.7608,1.7621,1.7695,1.7692,1.7742,1.7762,1.7862,1.7906,1.7865,1.8032,1.8009,1.802,1.8,1.8009,1.8015,1.8003,1.7865,0,0,0,0,0,1.7198,1.7271,1.7353,1.744,1.7473,1.7534,1.758,1.7606,1.7678,1.7706,1.7765,1.7835,1.7912,1.7963,1.8039,1.8147,1.8168,1.8191,1.8198,1.8203,1.8212,1.8273,1.8285,1.816,1.816,1.816,0,0,1.722,1.7283,1.7326,1.7439,1.7494,1.7569,1.7558,1.7638,1.7695,1.7719,1.7819,1.7864,1.7945,1.805,1.8099,1.809,1.8251,1.821,1.8213,1.8221,1.828,1.8292,1.8302,1.8164,1.8164,1.8163,0,0,1.7299,1.7353,1.7431,1.7486,1.7568,1.7608,1.7626,1.7713,1.7743,1.7844,1.7863,1.7931,1.8064,1.8121,1.8167,1.8265,1.8277,1.8288,1.8323,1.8381,1.8391,1.84,1.8436,1.8448,1.8297,1.8297,1.8297,0,1.7317,1.743,1.747,1.7549,1.7599,1.7622,1.7702,1.7753,1.7856,1.789,1.7877,1.8044,1.81,1.8219,1.8243,1.8279,1.8302,1.8279,1.8386,1.8396,1.8405,1.844,1.8453,1.8298,1.8298,1.8298,1.8298,0,1.7447,1.7525,1.7579,1.7676,1.7732,1.7811,1.7864,1.7915,1.7935,1.7977,1.8079,1.8146,1.8236,1.8266,1.8288,1.8388,1.838,1.8376,1.8354,1.8417,1.845,1.8464,1.8299,1.8299,1.8299,1.8299,0,0,1.7528,1.7644,1.7664,1.7708,1.7799,1.7861,1.794,1.8027,1.807,1.814,1.8209,1.832,1.8316,1.8369,1.8397,1.8448,1.8522,1.8438,1.844,1.8452,1.8638,1.8641,1.8656,1.8529,1.8532,1.8534,1.8631,0,1.7618,1.7761,1.7798,1.792,1.7993,1.8014,1.8084,1.8148,1.8188,1.8256,1.8301,1.8379,1.8368,1.84,1.8451,1.8502,1.856,1.8495,1.8595,1.8598,1.8576,1.8673,1.8678,1.8767,1.8644,1.8647,1.8648,0,1.7744,1.7814,1.7942,1.8023,1.8055,1.8117,1.8199,1.8264,1.8336,1.8362,1.8419,1.8442,1.8527,1.8498,1.8616,1.8571,1.8613,1.8644,1.8648,1.8661,1.8628,1.869,1.8796,1.881,1.8669,1.8668,1.8666,0,1.7791,1.7918,1.8011,1.8048,1.8144,1.8187,1.823,1.83,1.8349,1.8421,1.8454,1.8534,1.8579,1.8641,1.8685,1.866,1.8799,1.8774,1.8824,1.8823,1.8855,1.8853,1.897,1.8879,1.8879,1.8878,1.8878,0,1.7889,1.7967,1.8033,1.8091,1.8178,1.8221,1.8307,1.835,1.8412,1.8478,1.8502,1.8564,1.8617,1.8687,1.8721,1.8814,1.8834,1.8858,1.8866,1.8857,1.8854,1.8887,1.8883,1.8882,1.8881,1.888,1.888,0,1.7958,1.8005,1.8108,1.819,1.8212,1.8273,1.8344,1.8401,1.844,1.8525,1.8547,1.861,1.8693,1.8742,1.8847,1.887,1.8973,1.8978,1.8949,1.8953,1.9001,1.8996,1.9146,1.9168,1.906,1.906,1.9061,0,1.8019,1.8079,1.8166,1.8212,1.8254,1.8328,1.8378,1.8421,1.8472,1.8558,1.8605,1.8689,1.8759,1.889,1.8946,1.9027,1.9035,1.9082,1.9048,1.9036,1.9038,1.9034,1.9041,1.9088,1.9089,1.909,1.9091,0,1.8122,1.8142,1.8212,1.8291,1.8349,1.8414,1.8478,1.8514,1.8568,1.8624,1.8709,1.8763,1.8869,1.8952,1.9037,1.9081,1.9096,1.91,1.9117,1.9109,1.909,1.9102,1.8967,1.9098,1.9097,1.9096,1.9096,1.9096,1.819,1.8245,1.8314,1.8392,1.8444,1.8503,1.856,1.8606,1.8677,1.8766,1.8787,1.8876,1.8946,1.9061,1.9107,1.9178,1.917,1.9193,1.92,1.9205,1.9207,1.9076,1.9193,1.9193,1.9193,1.9193,1.9193,0,1.8296,1.8341,1.8412,1.85,1.8561,1.8566,1.8637,1.8688,1.8766,1.8829,1.8896,1.8993,1.9074,1.9135,1.9218,1.9262,1.9271,1.9283,1.9281,1.9291,1.9208,1.9187,1.9274,1.9274,1.9274,1.9274,1.9274,1.9274,1.8359,1.8451,1.8479,1.8597,1.8642,1.8728,1.8768,1.8823,1.8873,1.898,1.9047,1.9085,1.9148,1.9235,1.9309,1.9325,1.9355,1.9366,1.9384,1.9306,1.9297,1.9289,1.9269,1.9372,1.9372,1.9461,1.9462,1.9462]}]]